SL-14 DEB

Satellite information

Favourite Embed

Satellite Type and Status

DEBRISIN ORBIT

Key statistics

Satellite SL-14 DEB at a glance.

Uptime

12391

Days in orbit

Revolutions

≈ 12.9

Per day

Orbit

LEO

Low Earth Orbit

Inclination

82.6

Latest

Satellite identification and parameters

Extended collection of information and parameters for SL-14 DEB.

Object identification

Identified? True

Debris? True

Object name: SL-14 DEB

International designator: 1991-056AA

Object number (NORAD): 45288

Object ID (CCSDS): 45288

Country: COMMONWEALTH OF INDEPENDENT STATES (CIS)

Current information (Y/N): Y

RCS size: SMALL

Orbital parameters

Period: 111.773 minutes

Inclination: 82.6092 deg

SMA: 7686.307 km

Apoapsis: 1517.426 km

Periapsis: 1098.919 km

RAAN: 112.4207 deg

Eccentricy: 0.0272242

Argument of periapsis: 315.9097 deg

Mean anomaly: 42.0586 deg

Mean motion: 12.8832714 rev/day

Mean motion (dot): 0.00001771 rev/day2

B* drag term: 0.0058665 1/REarth

Two-line elements (TLE)

Creation date: July 17, 2025, 5:14 p.m.

Reference frame: TEME

Reference center: EARTH

Epoch: July 17, 2025, 5:03 a.m. UTC

TLE line 0: 0 SL-14 DEB

TLE line 1: 1 45288U 91056AA 25198.21075087 .00001771 00000-0 58665-2 0 9991

TLE line 2: 2 45288 82.6092 112.4207 0272242 315.9097 42.0586 12.88327140253186

Live tracking on map

Real-time ground track for satellite SL-14 DEB.

In-orbit conjunctions

A list of the most updated potential collisions computed for object SL-14 DEB.

Target Orbit TCA Probability of collision Miss distance Type
COSMOS 337 LEO 2024-10-27 09:38:33 0.0006381162 211.0 (m) PAYLOAD

Associated space launch

Third generation meteorological satellite

SL-14 DEB was lifted into orbit during the mission ‘Tsiklon-3 | Meteor-3 5’, on board a Tsiklon-3 space rocket.

The launch took place on Aug. 15, 1991, 9:15 a.m. from 32/2.

For more information about the launch, click the button.

Launch to space Tsiklon-3 | Meteor-3 5
Tsiklon-3 | Meteor-3 5

Agency: N/A

Status: Launch Successful

Launch date: Aug. 15, 1991, 9:15 a.m. UTC

Rocket: Tsiklon-3

Launch pad: 32/2

Location: Plesetsk Cosmodrome, Russian Federation

...

Latest news about this satellite

There are no fresh news available about this satellite. Check back as we update our databases every day.


Newsletter sign-up

Weekly statistics, charts and insights to help you stay on top of the space industry.